Humidity-temperature Sensor

Selected Measurement Type: Relative Humidity

 
Relative Humidity [%]     6 entries per hour
Showing data from 8/27/2022 (00:00:00 Z) to 8/26/2022 (00:01:00 Z)
Previous Next [ Day | 3-Days | 7-Days ]
First Last
Prev [ Day | 3-Days | 7-Days ] Next
First Last

Start Time:     :
End Time:     :     
Time (in GMT) :00 :50 :40 :30 :20 :10
Previous Next [ Day | 3-Days | 7-Days ]
First Last
Prev [ Day | 3-Days | 7-Days ] Next
First Last


123 => good data
MM => data is determined as missing
-- => data not received/configured
Back to Top Back to Top
8/27/2022 00:00 to 23:10 86.18 86.67 86.44 87.04 87.63 87.35
8/26/2022 23:00 to 22:10 87.51 86.94 86.61 85.56 85.60 85.31
8/26/2022 22:00 to 21:10 85.91 86.63 87.04 87.33 87.31 87.29
8/26/2022 21:00 to 20:10 86.75 86.03 85.89 86.11 86.53 86.55
8/26/2022 20:00 to 19:10 86.38 86.13 86.40 86.22 86.96 86.79
8/26/2022 19:00 to 18:10 85.48 85.52 86.34 87.86 89.55 90.45
8/26/2022 18:00 to 17:10 91.52 92.42 92.85 94.23 94.79 94.52
8/26/2022 17:00 to 16:10 93.76 92.67 91.77 90.78 90.22 90.53
8/26/2022 16:00 to 15:10 90.35 90.84 91.35 92.14 92.44 92.36
8/26/2022 15:00 to 14:10 92.36 92.22 91.89 90.41 87.59 86.57
8/26/2022 14:00 to 13:10 86.69 86.77 86.30 86.53 86.20 86.09
8/26/2022 13:00 to 12:10 85.85 86.07 86.73 87.06 87.29 87.18
8/26/2022 12:00 to 11:10 86.94 85.91 85.17 84.18 85.35 85.99
8/26/2022 11:00 to 10:10 86.65 86.73 87.14 87.26 87.33 87.68
8/26/2022 10:00 to 9:10 88.31 88.58 88.58 88.62 88.62 88.40
8/26/2022 09:00 to 8:10 88.27 88.03 87.80 87.49 87.57 87.18
8/26/2022 08:00 to 7:10 87.68 88.13 88.23 87.74 88.03 88.31
8/26/2022 07:00 to 6:10 88.50 88.03 88.33 88.56 88.42 88.07
8/26/2022 06:00 to 5:10 87.98 87.92 87.74 87.14 86.96 86.59
8/26/2022 05:00 to 4:10 85.79 85.70 85.85 85.72 85.95 85.99
8/26/2022 04:00 to 3:10 85.95 85.60 85.97 86.32 86.57 86.42
8/26/2022 03:00 to 2:10 86.07 85.72 85.87 86.03 85.79 85.68
8/26/2022 02:00 to 1:10 85.93 86.07 86.11 86.26 86.05 85.52
8/26/2022 01:00 to 0:10 85.72 85.64 85.97 86.03 86.07 86.03